Year,Month,Day,Hour,Minute,Value (Times are PST for temperature in C)
2019,05,23,00,00,15.80
2019,05,23,00,01,15.90
2019,05,23,00,02,15.90
2019,05,23,00,03,16.00
2019,05,23,00,04,15.90
2019,05,23,00,05,15.80
2019,05,23,00,06,15.30
2019,05,23,00,07,14.80
2019,05,23,00,08,14.60
2019,05,23,00,09,14.30
2019,05,23,00,10,14.20
2019,05,23,00,11,14.10
2019,05,23,00,12,14.00
2019,05,23,00,13,14.00
2019,05,23,00,14,14.00
2019,05,23,00,15,14.10
2019,05,23,00,16,14.20
2019,05,23,00,17,14.40
2019,05,23,00,18,14.60
2019,05,23,00,19,14.70
2019,05,23,00,20,14.70
2019,05,23,00,21,14.80
2019,05,23,00,22,14.80
2019,05,23,00,23,14.80
2019,05,23,00,24,14.80
2019,05,23,00,25,14.70
2019,05,23,00,26,14.50
2019,05,23,00,27,14.40
2019,05,23,00,28,14.20
2019,05,23,00,29,14.10
2019,05,23,00,30,14.00
2019,05,23,00,31,14.00
2019,05,23,00,32,14.00
2019,05,23,00,33,14.00
2019,05,23,00,34,14.00
2019,05,23,00,35,13.90
2019,05,23,00,36,14.00
2019,05,23,00,37,14.20
2019,05,23,00,38,14.10
2019,05,23,00,39,13.80
2019,05,23,00,40,13.50
2019,05,23,00,41,13.30
2019,05,23,00,42,13.10
2019,05,23,00,43,13.00
2019,05,23,00,44,13.10
2019,05,23,00,45,13.10
2019,05,23,00,46,13.20
2019,05,23,00,47,13.60
2019,05,23,00,48,14.00
2019,05,23,00,49,14.20
2019,05,23,00,50,14.20
2019,05,23,00,51,14.20
2019,05,23,00,52,14.30
2019,05,23,00,53,14.20
2019,05,23,00,54,13.90
2019,05,23,00,55,13.70
2019,05,23,00,56,13.70
2019,05,23,00,57,13.60
2019,05,23,00,58,13.70
2019,05,23,00,59,13.90
2019,05,23,01,00,13.80
2019,05,23,01,01,13.40
2019,05,23,01,02,13.20
2019,05,23,01,03,13.40
2019,05,23,01,04,13.40
2019,05,23,01,05,13.50
2019,05,23,01,06,13.50
2019,05,23,01,07,13.50
2019,05,23,01,08,13.50
2019,05,23,01,09,13.60
2019,05,23,01,10,13.70
2019,05,23,01,11,13.50
2019,05,23,01,12,13.40
2019,05,23,01,13,13.40
2019,05,23,01,14,13.60
2019,05,23,01,15,13.70
2019,05,23,01,16,13.80
2019,05,23,01,17,13.70
2019,05,23,01,18,13.60
2019,05,23,01,19,13.70
2019,05,23,01,20,13.80
2019,05,23,01,21,13.60
2019,05,23,01,22,13.60
2019,05,23,01,23,13.60
2019,05,23,01,24,13.50
2019,05,23,01,25,13.40
2019,05,23,01,26,13.20
2019,05,23,01,27,12.90
2019,05,23,01,28,12.50
2019,05,23,01,29,12.30
2019,05,23,01,30,12.00
2019,05,23,01,31,11.90
2019,05,23,01,32,11.80
2019,05,23,01,33,11.70
2019,05,23,01,34,11.80
2019,05,23,01,35,12.10
2019,05,23,01,36,12.30
2019,05,23,01,37,12.40
2019,05,23,01,38,12.80
2019,05,23,01,39,13.20
2019,05,23,01,40,13.40
2019,05,23,01,41,13.40
2019,05,23,01,42,13.30
2019,05,23,01,43,12.90
2019,05,23,01,44,13.10
2019,05,23,01,45,13.80
2019,05,23,01,46,14.50
2019,05,23,01,47,14.90
2019,05,23,01,48,15.00
2019,05,23,01,49,14.80
2019,05,23,01,50,14.50
2019,05,23,01,51,14.50
2019,05,23,01,52,14.30
2019,05,23,01,53,14.10
2019,05,23,01,54,13.90
2019,05,23,01,55,13.70
2019,05,23,01,56,13.60
2019,05,23,02,06,12.10
2019,05,23,02,07,12.00
2019,05,23,02,08,11.90
2019,05,23,02,09,11.90
2019,05,23,02,10,12.00
2019,05,23,02,11,12.10
2019,05,23,02,12,12.10
2019,05,23,02,13,12.20
2019,05,23,02,14,12.10
2019,05,23,02,15,12.10
2019,05,23,02,16,12.10
2019,05,23,02,17,12.10
2019,05,23,02,18,12.10
2019,05,23,02,19,12.10
2019,05,23,02,20,12.10
2019,05,23,02,21,12.10
2019,05,23,02,22,12.10
2019,05,23,02,23,12.10
2019,05,23,02,24,12.00
2019,05,23,02,25,12.00
2019,05,23,02,26,12.00
2019,05,23,02,27,12.00
2019,05,23,02,28,11.90
2019,05,23,02,29,11.90
2019,05,23,02,30,11.90
2019,05,23,02,31,11.80
2019,05,23,02,32,11.80
2019,05,23,02,33,11.70
2019,05,23,02,34,11.70
2019,05,23,02,35,11.60
2019,05,23,02,36,11.60
2019,05,23,02,37,11.60
2019,05,23,02,38,11.50
2019,05,23,02,39,11.50
2019,05,23,02,40,11.50
2019,05,23,02,41,11.60
2019,05,23,02,42,11.70
2019,05,23,02,43,11.70
2019,05,23,02,44,11.70
2019,05,23,02,45,11.60
2019,05,23,02,46,11.60
2019,05,23,02,47,11.60
2019,05,23,02,48,11.60
2019,05,23,02,49,11.70
2019,05,23,02,50,11.70
2019,05,23,02,51,11.80
2019,05,23,02,52,11.80
2019,05,23,02,53,11.90
2019,05,23,02,54,11.90
2019,05,23,02,55,11.90
2019,05,23,02,56,11.90
2019,05,23,02,57,11.90
2019,05,23,02,58,11.90
2019,05,23,02,59,11.90
2019,05,23,03,00,12.00
2019,05,23,03,01,12.00
2019,05,23,03,02,12.00
2019,05,23,03,03,12.00
2019,05,23,03,06,12.10
2019,05,23,03,07,12.10
2019,05,23,03,08,12.10
2019,05,23,03,09,12.00
2019,05,23,03,10,12.00
2019,05,23,03,11,12.00
2019,05,23,03,12,12.00
2019,05,23,03,13,12.00
2019,05,23,03,14,12.00
2019,05,23,03,15,11.90
2019,05,23,03,16,11.90
2019,05,23,03,17,11.90
2019,05,23,03,18,11.90
2019,05,23,03,19,11.90
2019,05,23,03,20,11.90
2019,05,23,03,21,11.90
2019,05,23,03,22,11.90
2019,05,23,03,23,11.90
2019,05,23,03,24,11.90
2019,05,23,03,25,11.90
2019,05,23,03,26,12.00
2019,05,23,03,27,12.00
2019,05,23,03,28,12.00
2019,05,23,03,29,12.10
2019,05,23,03,30,12.10
2019,05,23,03,31,12.10
2019,05,23,03,32,12.20
2019,05,23,03,33,12.20
2019,05,23,03,34,12.20
2019,05,23,03,35,12.20
2019,05,23,03,36,12.20
2019,05,23,03,37,12.20
2019,05,23,03,38,12.20
2019,05,23,03,39,12.10
2019,05,23,03,40,12.10
2019,05,23,03,41,12.10
2019,05,23,03,42,12.00
2019,05,23,03,43,12.00
2019,05,23,03,44,12.00
2019,05,23,03,45,11.90
2019,05,23,03,46,11.90
2019,05,23,03,47,11.90
2019,05,23,03,48,11.90
2019,05,23,03,49,11.80
2019,05,23,03,50,11.80
2019,05,23,03,51,11.80
2019,05,23,03,52,11.80
2019,05,23,03,53,11.70
2019,05,23,03,54,11.70
2019,05,23,03,55,11.70
2019,05,23,03,56,11.70
2019,05,23,03,57,11.70
2019,05,23,03,58,11.70
2019,05,23,03,59,11.70
2019,05,23,04,00,11.70
2019,05,23,04,01,11.70
2019,05,23,04,02,11.70
2019,05,23,04,03,11.70
2019,05,23,04,04,11.70
2019,05,23,04,05,11.70
2019,05,23,04,06,11.60
2019,05,23,04,07,11.60
2019,05,23,04,08,11.60
2019,05,23,04,09,11.60
2019,05,23,04,10,11.50
2019,05,23,04,11,11.40
2019,05,23,04,12,11.40
2019,05,23,04,13,11.30
2019,05,23,04,14,11.30
2019,05,23,04,15,11.30
2019,05,23,04,16,11.30
2019,05,23,04,17,11.30
2019,05,23,04,18,11.30
2019,05,23,04,19,11.30
2019,05,23,04,20,11.30
2019,05,23,04,21,11.30
2019,05,23,04,22,11.30
2019,05,23,04,23,11.30
2019,05,23,04,24,11.40
2019,05,23,04,25,11.40
2019,05,23,04,26,11.50
2019,05,23,04,27,11.60
2019,05,23,04,28,11.60
2019,05,23,04,29,11.70
2019,05,23,04,30,11.70
2019,05,23,04,31,11.70
2019,05,23,04,32,11.70
2019,05,23,04,33,11.70
2019,05,23,04,34,11.60
2019,05,23,04,35,11.60
2019,05,23,04,36,11.50
2019,05,23,04,37,11.50
2019,05,23,04,38,11.50
2019,05,23,04,39,11.50
2019,05,23,04,40,11.40
2019,05,23,04,41,11.40
2019,05,23,04,42,11.40
2019,05,23,04,43,11.40
2019,05,23,04,44,11.40
2019,05,23,04,45,11.40
2019,05,23,04,46,11.30
2019,05,23,04,47,11.30
2019,05,23,04,48,11.20
2019,05,23,04,49,11.10
2019,05,23,04,50,11.10
2019,05,23,04,51,11.00
2019,05,23,04,52,11.00
2019,05,23,04,53,11.00
2019,05,23,04,54,10.90
2019,05,23,04,55,10.90
2019,05,23,04,56,10.90
2019,05,23,04,57,10.90
2019,05,23,04,58,10.90
2019,05,23,04,59,10.90
2019,05,23,05,00,10.80
2019,05,23,05,01,10.80
2019,05,23,05,02,10.80
2019,05,23,05,03,10.80
2019,05,23,05,04,10.70
2019,05,23,05,05,10.70
2019,05,23,05,06,10.70
2019,05,23,05,07,10.70
2019,05,23,05,08,10.70
2019,05,23,05,09,10.60
2019,05,23,05,10,10.60
2019,05,23,05,11,10.60
2019,05,23,05,12,10.60
2019,05,23,05,13,10.60
2019,05,23,05,14,10.60
2019,05,23,05,15,10.60
2019,05,23,05,16,10.50
2019,05,23,05,17,10.60
2019,05,23,05,18,10.60
2019,05,23,05,19,10.60
2019,05,23,05,20,10.60
2019,05,23,05,21,10.60
2019,05,23,05,22,10.60
2019,05,23,05,23,10.50
2019,05,23,05,24,10.50
2019,05,23,05,25,10.60
2019,05,23,05,26,10.60
2019,05,23,05,27,10.60
2019,05,23,05,28,10.60
2019,05,23,05,29,10.60
2019,05,23,05,30,10.60
2019,05,23,05,31,10.50
2019,05,23,05,32,10.50
2019,05,23,05,33,10.50
2019,05,23,05,34,10.40
2019,05,23,05,35,10.40
2019,05,23,05,36,10.40
2019,05,23,05,37,10.40
2019,05,23,05,38,10.40
2019,05,23,05,39,10.40
2019,05,23,05,40,10.40
2019,05,23,05,41,10.40
2019,05,23,05,42,10.30
2019,05,23,05,43,10.30
2019,05,23,05,44,10.30
2019,05,23,05,45,10.30
2019,05,23,05,46,10.30
2019,05,23,05,47,10.40
2019,05,23,05,48,10.30
2019,05,23,05,49,10.30
2019,05,23,05,50,10.30
2019,05,23,05,51,10.30
2019,05,23,05,52,10.30
2019,05,23,05,53,10.30
2019,05,23,05,54,10.30
2019,05,23,05,55,10.30
2019,05,23,05,56,10.30
2019,05,23,05,57,10.30
2019,05,23,05,58,10.30
2019,05,23,05,59,10.30
2019,05,23,06,00,10.30
2019,05,23,06,01,10.20
2019,05,23,06,02,10.20
2019,05,23,06,03,10.20
2019,05,23,06,04,10.20
2019,05,23,06,05,10.20
2019,05,23,06,06,10.20
2019,05,23,06,07,10.20
2019,05,23,06,08,10.20
2019,05,23,06,09,10.20
2019,05,23,06,10,10.20
2019,05,23,06,11,10.20
2019,05,23,06,12,10.20
2019,05,23,06,13,10.10
2019,05,23,06,14,10.10
2019,05,23,06,15,10.10
2019,05,23,06,16,10.10
2019,05,23,06,17,10.20
2019,05,23,06,18,10.20
2019,05,23,06,19,10.40
2019,05,23,06,20,10.50
2019,05,23,06,21,10.80
2019,05,23,06,22,10.90
2019,05,23,06,23,11.00
2019,05,23,06,24,11.00
2019,05,23,06,25,10.90
2019,05,23,06,26,10.80
2019,05,23,06,27,10.70
2019,05,23,06,28,10.60
2019,05,23,06,29,10.60
2019,05,23,06,30,10.50
2019,05,23,06,31,10.50
2019,05,23,06,32,10.40
2019,05,23,06,33,10.50
2019,05,23,06,34,10.50
2019,05,23,06,35,10.50
2019,05,23,06,36,10.50
2019,05,23,06,37,10.50
2019,05,23,06,38,10.50
2019,05,23,06,39,10.60
2019,05,23,06,40,10.70
2019,05,23,06,41,10.80
2019,05,23,06,42,10.70
2019,05,23,06,43,10.70
2019,05,23,06,44,10.70
2019,05,23,06,45,10.70
2019,05,23,06,46,10.60
2019,05,23,06,47,10.50
2019,05,23,06,48,10.40
2019,05,23,06,49,10.30
2019,05,23,06,50,10.30
2019,05,23,06,51,10.20
2019,05,23,06,52,10.10
2019,05,23,06,53,10.10
2019,05,23,06,54,10.10
2019,05,23,06,55,10.10
2019,05,23,06,56,10.00
2019,05,23,06,57,10.00
2019,05,23,06,58,10.00
2019,05,23,06,59,10.00
2019,05,23,07,00,9.90
2019,05,23,07,01,9.90
2019,05,23,07,02,9.90
2019,05,23,07,03,9.90
2019,05,23,07,04,9.90
2019,05,23,07,05,10.00
2019,05,23,07,06,10.00
2019,05,23,07,07,10.00
2019,05,23,07,08,10.10
2019,05,23,07,09,10.10
2019,05,23,07,10,10.10
2019,05,23,07,11,10.20
2019,05,23,07,12,10.20
2019,05,23,07,13,10.20
2019,05,23,07,14,10.20
2019,05,23,07,15,10.20
2019,05,23,07,16,10.20
2019,05,23,07,17,10.20
2019,05,23,07,18,10.30
2019,05,23,07,19,10.30
2019,05,23,07,20,10.30
2019,05,23,07,21,10.30
2019,05,23,07,22,10.30
2019,05,23,07,23,10.30
2019,05,23,07,24,10.30
2019,05,23,07,25,10.30
2019,05,23,07,26,10.30
2019,05,23,07,27,10.30
2019,05,23,07,28,10.30
2019,05,23,07,29,10.30
2019,05,23,07,30,10.30
2019,05,23,07,31,10.40
2019,05,23,07,32,10.40
2019,05,23,07,33,10.50
2019,05,23,07,34,10.50
2019,05,23,07,35,10.50
2019,05,23,07,36,10.50
2019,05,23,07,37,10.50
2019,05,23,07,38,10.50
2019,05,23,07,39,10.50
2019,05,23,07,40,10.60
2019,05,23,07,41,10.60
2019,05,23,07,42,10.60
2019,05,23,07,43,10.60
2019,05,23,07,44,10.60
2019,05,23,07,45,10.60
2019,05,23,07,46,10.60
2019,05,23,07,47,10.60
2019,05,23,07,48,10.50
2019,05,23,07,49,10.50
2019,05,23,07,50,10.40
2019,05,23,07,51,10.40
2019,05,23,07,52,10.50
2019,05,23,07,53,10.40
2019,05,23,07,54,10.40
2019,05,23,07,55,10.40
2019,05,23,07,56,10.40
2019,05,23,07,57,10.30
2019,05,23,07,58,10.30
2019,05,23,07,59,10.30
2019,05,23,08,00,10.30
2019,05,23,08,01,10.40
2019,05,23,08,02,10.40
2019,05,23,08,03,10.40
2019,05,23,08,04,10.40
2019,05,23,08,05,10.40
2019,05,23,08,06,10.40
2019,05,23,08,07,10.40
2019,05,23,08,08,10.50
2019,05,23,08,09,10.60
2019,05,23,08,10,10.60
2019,05,23,08,11,10.60
2019,05,23,08,12,10.50
2019,05,23,08,13,10.40
2019,05,23,08,14,10.30
2019,05,23,08,15,10.20
2019,05,23,08,16,10.20
2019,05,23,08,17,10.20
2019,05,23,08,18,10.20
2019,05,23,08,19,10.20
2019,05,23,08,20,10.10
2019,05,23,08,21,10.10
2019,05,23,08,22,10.10
2019,05,23,08,23,10.10
2019,05,23,08,24,10.10
2019,05,23,08,25,10.10
2019,05,23,08,26,10.10
2019,05,23,08,27,10.10
2019,05,23,08,28,10.00
2019,05,23,08,29,10.00
2019,05,23,08,30,10.00
2019,05,23,08,31,10.00
2019,05,23,08,32,10.00
2019,05,23,08,33,10.00
2019,05,23,08,34,9.90
2019,05,23,08,35,9.90
2019,05,23,08,36,9.90
2019,05,23,08,37,9.90
2019,05,23,08,38,9.90
2019,05,23,08,39,9.90
2019,05,23,08,40,9.90
2019,05,23,08,41,9.90
2019,05,23,08,42,9.90
2019,05,23,08,43,9.90
2019,05,23,08,44,9.90
2019,05,23,08,45,10.00
2019,05,23,08,46,10.00
2019,05,23,08,47,10.00
2019,05,23,08,48,10.00
2019,05,23,08,49,10.00
2019,05,23,08,50,10.10
2019,05,23,08,51,10.00
2019,05,23,08,52,10.00
2019,05,23,08,53,10.10
2019,05,23,08,54,10.10
2019,05,23,08,55,10.10
2019,05,23,08,56,10.20
2019,05,23,08,57,10.10
2019,05,23,08,58,10.10
2019,05,23,08,59,10.10
2019,05,23,09,00,10.10
2019,05,23,09,01,10.20
2019,05,23,09,02,10.20
2019,05,23,09,03,10.20
2019,05,23,09,04,10.10
2019,05,23,09,05,10.20
2019,05,23,09,06,10.30
2019,05,23,09,07,10.30
2019,05,23,09,08,10.40
2019,05,23,09,09,10.60
2019,05,23,09,10,10.70
2019,05,23,09,11,10.80
2019,05,23,09,12,10.90
2019,05,23,09,13,10.90
2019,05,23,09,14,10.90
2019,05,23,09,15,10.80
2019,05,23,09,16,10.90
2019,05,23,09,17,11.00
2019,05,23,09,18,10.90
2019,05,23,09,19,10.90
2019,05,23,09,20,10.80
2019,05,23,09,21,10.70
2019,05,23,09,22,10.70
2019,05,23,09,23,10.60
2019,05,23,09,24,10.60
2019,05,23,10,06,10.20
2019,05,23,10,07,10.20
2019,05,23,10,08,10.20
2019,05,23,10,09,10.20
2019,05,23,10,10,10.20
2019,05,23,10,11,10.20
2019,05,23,10,12,10.10
2019,05,23,10,13,10.20
2019,05,23,10,14,10.20
2019,05,23,10,15,10.20
2019,05,23,10,16,10.10
2019,05,23,10,17,10.10
2019,05,23,10,18,10.10
2019,05,23,10,19,10.10
2019,05,23,10,20,10.10
2019,05,23,10,21,10.10
2019,05,23,10,22,10.00
2019,05,23,10,23,10.00
2019,05,23,10,24,10.00
2019,05,23,10,25,10.00
2019,05,23,10,26,10.00
2019,05,23,10,27,10.00
2019,05,23,10,28,10.00
2019,05,23,10,29,10.00
2019,05,23,10,30,9.90
2019,05,23,10,31,9.90
2019,05,23,10,32,10.00
2019,05,23,10,33,10.00
2019,05,23,10,34,10.00
2019,05,23,10,35,10.00
2019,05,23,10,36,9.90
2019,05,23,10,37,9.90
2019,05,23,10,38,9.90
2019,05,23,10,39,9.90
2019,05,23,10,40,9.90
2019,05,23,10,41,9.90
2019,05,23,10,42,9.90
2019,05,23,10,43,9.90
2019,05,23,10,44,9.90
2019,05,23,10,45,10.00
2019,05,23,10,46,9.90
2019,05,23,10,47,9.90
2019,05,23,10,48,9.90
2019,05,23,10,49,9.90
2019,05,23,10,50,9.90
2019,05,23,10,51,9.90
2019,05,23,10,52,9.90
2019,05,23,10,53,10.00
2019,05,23,10,54,10.00
2019,05,23,10,55,10.00
2019,05,23,10,56,10.00
2019,05,23,10,57,9.90
2019,05,23,10,58,10.00
2019,05,23,10,59,10.00
2019,05,23,11,00,10.00
2019,05,23,11,01,10.00
2019,05,23,11,02,10.00
2019,05,23,11,03,10.00
2019,05,23,11,04,10.00
2019,05,23,11,05,9.90
2019,05,23,11,06,9.90
2019,05,23,11,07,10.00
2019,05,23,11,08,9.90
2019,05,23,11,09,9.90
2019,05,23,11,10,10.00
2019,05,23,11,11,10.00
2019,05,23,11,12,10.10
2019,05,23,11,13,10.10
2019,05,23,11,14,10.10
2019,05,23,11,15,10.10
2019,05,23,11,16,10.10
2019,05,23,12,06,10.10
2019,05,23,12,07,10.10
2019,05,23,12,08,10.10
2019,05,23,12,09,10.10
2019,05,23,12,10,10.10
2019,05,23,12,11,10.10
2019,05,23,12,12,10.10
2019,05,23,12,13,10.10
2019,05,23,12,14,10.10
2019,05,23,12,15,10.10
2019,05,23,12,16,10.10
2019,05,23,12,17,10.20
2019,05,23,12,18,10.20
2019,05,23,12,19,10.20
2019,05,23,12,20,10.20
2019,05,23,12,21,10.20
2019,05,23,12,22,10.20
2019,05,23,12,23,10.20
2019,05,23,12,24,10.20
2019,05,23,12,25,10.20
2019,05,23,12,26,10.20
2019,05,23,12,27,10.20
2019,05,23,12,28,10.20
2019,05,23,12,29,10.20
2019,05,23,12,30,10.20
2019,05,23,12,31,10.20
2019,05,23,12,32,10.20
2019,05,23,12,33,10.20
2019,05,23,12,34,10.20
2019,05,23,12,35,10.20
2019,05,23,12,36,10.20
2019,05,23,12,37,10.20
2019,05,23,12,38,10.20
2019,05,23,12,39,10.20
2019,05,23,12,40,10.20
2019,05,23,12,41,10.20
2019,05,23,12,42,10.20
2019,05,23,12,43,10.20
2019,05,23,12,44,10.20
2019,05,23,12,45,10.20
2019,05,23,12,46,10.20
2019,05,23,12,47,10.20
2019,05,23,12,48,10.20
2019,05,23,12,49,10.20
2019,05,23,12,50,10.20
2019,05,23,12,51,10.20
2019,05,23,12,52,10.20
2019,05,23,12,53,10.20
2019,05,23,12,54,10.20
2019,05,23,12,55,10.20
2019,05,23,12,56,10.20
2019,05,23,12,57,10.20
2019,05,23,12,58,10.20
2019,05,23,12,59,10.20
2019,05,23,13,00,10.20
2019,05,23,13,01,10.20
2019,05,23,13,02,10.10
2019,05,23,13,03,10.10
2019,05,23,13,04,10.10
2019,05,23,13,05,10.10
2019,05,23,13,06,10.20
2019,05,23,13,07,10.20
2019,05,23,13,08,10.20
2019,05,23,13,09,10.20
2019,05,23,13,10,10.20
2019,05,23,13,11,10.20
2019,05,23,13,12,10.20
2019,05,23,13,13,10.20
2019,05,23,13,14,10.20
2019,05,23,13,15,10.20
2019,05,23,13,16,10.20
2019,05,23,13,17,10.20
2019,05,23,13,18,10.20
2019,05,23,13,19,10.20
2019,05,23,13,20,10.20
2019,05,23,13,21,10.20
2019,05,23,13,22,10.20
2019,05,23,13,23,10.20
2019,05,23,13,24,10.20
2019,05,23,13,25,10.20
2019,05,23,13,26,10.20
2019,05,23,13,27,10.20
2019,05,23,13,28,10.20
2019,05,23,13,29,10.20
2019,05,23,13,30,10.10
2019,05,23,13,31,10.10
2019,05,23,13,32,10.10
2019,05,23,13,33,10.10
2019,05,23,13,34,10.10
2019,05,23,13,35,10.10
2019,05,23,13,36,10.10
2019,05,23,13,37,10.10
2019,05,23,13,38,10.20
2019,05,23,13,39,10.10
2019,05,23,13,40,10.20
2019,05,23,13,41,10.20
2019,05,23,13,42,10.20
2019,05,23,13,43,10.20
2019,05,23,13,44,10.20
2019,05,23,13,45,10.20
2019,05,23,13,46,10.20
2019,05,23,13,47,10.20
2019,05,23,13,48,10.20
2019,05,23,13,49,10.20
2019,05,23,13,50,10.20
2019,05,23,13,51,10.20
2019,05,23,13,52,10.20
2019,05,23,13,53,10.20
2019,05,23,13,54,10.20
2019,05,23,13,55,10.30
2019,05,23,13,56,10.20
2019,05,23,13,57,10.20
2019,05,23,13,58,10.20
2019,05,23,13,59,10.20
2019,05,23,14,00,10.20
2019,05,23,14,01,10.20
2019,05,23,14,02,10.20
2019,05,23,14,03,10.20
2019,05,23,14,04,10.20
2019,05,23,14,05,10.20
2019,05,23,14,06,10.20
2019,05,23,14,07,10.20
2019,05,23,14,08,10.20
2019,05,23,14,09,10.20
2019,05,23,14,10,10.20
2019,05,23,14,11,10.20
2019,05,23,14,12,10.10
2019,05,23,14,13,10.10
2019,05,23,14,14,10.10
2019,05,23,14,15,10.10
2019,05,23,14,16,10.00
2019,05,23,14,17,10.00
2019,05,23,14,18,10.00
2019,05,23,14,19,10.00
2019,05,23,14,20,10.00
2019,05,23,14,21,10.00
2019,05,23,14,22,10.00
2019,05,23,14,23,10.00
2019,05,23,14,24,10.00
2019,05,23,14,25,10.00
2019,05,23,14,26,10.00
2019,05,23,14,27,10.00
2019,05,23,14,28,10.00
2019,05,23,14,29,10.00
2019,05,23,14,30,10.00
2019,05,23,14,31,10.10
2019,05,23,14,32,10.00
2019,05,23,14,33,10.10
2019,05,23,14,34,10.10
2019,05,23,14,35,10.10
2019,05,23,14,36,10.10
2019,05,23,14,37,10.10
2019,05,23,14,38,10.10
2019,05,23,14,39,10.10
2019,05,23,14,40,10.20
2019,05,23,14,41,10.20
2019,05,23,14,42,10.20
2019,05,23,14,43,10.20
2019,05,23,14,44,10.20
2019,05,23,14,45,10.20
2019,05,23,14,46,10.20
2019,05,23,14,47,10.20
2019,05,23,14,48,10.20
2019,05,23,14,49,10.20
2019,05,23,14,50,10.30
2019,05,23,14,51,10.30
2019,05,23,14,52,10.20
2019,05,23,14,53,10.20
2019,05,23,14,54,10.20
2019,05,23,14,55,10.30
2019,05,23,14,56,10.30
2019,05,23,14,57,10.30
2019,05,23,14,58,10.30
2019,05,23,14,59,10.30
2019,05,23,15,00,10.30
2019,05,23,15,01,10.40
2019,05,23,15,02,10.40
2019,05,23,15,03,10.40
2019,05,23,15,04,10.40
2019,05,23,15,05,10.40
2019,05,23,15,06,10.40
2019,05,23,15,07,10.40
2019,05,23,15,08,10.40
2019,05,23,15,09,10.40
2019,05,23,15,10,10.40
2019,05,23,15,11,10.40
2019,05,23,15,12,10.40
2019,05,23,15,13,10.50
2019,05,23,15,14,10.50
2019,05,23,15,15,10.50
2019,05,23,15,16,10.50
2019,05,23,15,17,10.60
2019,05,23,15,18,10.60
2019,05,23,15,19,10.60
2019,05,23,15,20,10.60
2019,05,23,15,21,10.70
2019,05,23,15,22,10.70
2019,05,23,15,23,10.70
2019,05,23,15,24,10.80
2019,05,23,15,25,10.80
2019,05,23,15,26,10.80
2019,05,23,15,27,10.90
2019,05,23,15,28,10.90
2019,05,23,15,29,10.90
2019,05,23,15,30,11.00
2019,05,23,15,31,11.10
2019,05,23,15,32,11.10
2019,05,23,15,33,11.10
2019,05,23,15,34,11.20
2019,05,23,15,35,11.20
2019,05,23,15,36,11.20
2019,05,23,15,37,11.20
2019,05,23,15,38,11.30
2019,05,23,15,39,11.50
2019,05,23,15,40,11.60
2019,05,23,15,41,11.60
2019,05,23,15,42,11.60
2019,05,23,15,43,11.50
2019,05,23,15,44,11.50
2019,05,23,15,45,11.60
2019,05,23,15,46,11.60
2019,05,23,15,47,11.50
2019,05,23,15,48,11.40
2019,05,23,15,49,11.40
2019,05,23,15,50,11.40
2019,05,23,15,51,11.40
2019,05,23,15,52,11.40
2019,05,23,15,53,11.40
2019,05,23,15,54,11.50
2019,05,23,15,55,11.50
2019,05,23,15,56,11.60
2019,05,23,15,57,11.70
2019,05,23,15,58,11.70
2019,05,23,15,59,11.60
2019,05,23,16,00,11.50
2019,05,23,16,01,11.50
2019,05,23,16,02,11.50
2019,05,23,16,03,11.60
2019,05,23,16,04,11.60
2019,05,23,16,05,11.70
2019,05,23,16,06,11.70
2019,05,23,16,07,11.70
2019,05,23,16,08,11.80
2019,05,23,16,09,11.90
2019,05,23,16,10,12.20
2019,05,23,16,11,12.10
2019,05,23,16,12,11.90
2019,05,23,16,13,11.80
2019,05,23,16,14,11.60
2019,05,23,16,15,11.50
2019,05,23,16,16,11.40
2019,05,23,16,17,11.30
2019,05,23,16,18,11.30
2019,05,23,16,19,11.20
2019,05,23,16,20,11.20
2019,05,23,16,21,11.20
2019,05,23,16,22,11.20
2019,05,23,16,23,11.30
2019,05,23,16,24,11.30
2019,05,23,16,25,11.30
2019,05,23,16,26,11.30
2019,05,23,16,27,11.30
2019,05,23,16,28,11.20
2019,05,23,16,29,11.20
2019,05,23,16,30,11.20
2019,05,23,16,31,11.20
2019,05,23,16,32,11.30
2019,05,23,16,33,11.30
2019,05,23,16,34,11.40
2019,05,23,16,35,11.40
2019,05,23,16,36,11.40
2019,05,23,16,37,11.40
2019,05,23,16,38,11.40
2019,05,23,16,39,11.40
2019,05,23,16,40,11.40
2019,05,23,16,41,11.40
2019,05,23,16,42,11.50
2019,05,23,16,43,11.50
2019,05,23,16,44,11.50
2019,05,23,16,45,11.60
2019,05,23,16,46,11.50
2019,05,23,16,47,11.50
2019,05,23,16,48,11.60
2019,05,23,16,49,11.60
2019,05,23,16,50,11.50
2019,05,23,16,51,11.60
2019,05,23,16,52,11.60
2019,05,23,16,53,11.60
2019,05,23,16,54,11.70
2019,05,23,16,55,11.70
2019,05,23,16,56,11.70
2019,05,23,16,57,11.70
2019,05,23,16,58,11.70
2019,05,23,16,59,11.60
2019,05,23,17,00,11.60
2019,05,23,17,01,11.60
2019,05,23,17,02,11.70
2019,05,23,17,03,11.80
2019,05,23,17,04,11.90
2019,05,23,17,05,11.90
2019,05,23,17,06,12.00
2019,05,23,17,07,12.00
2019,05,23,17,08,12.10
2019,05,23,17,09,12.10
2019,05,23,17,10,12.20
2019,05,23,17,11,12.20
2019,05,23,17,12,12.20
2019,05,23,17,13,12.20
2019,05,23,17,14,12.30
2019,05,23,17,15,12.40
2019,05,23,17,16,12.40
2019,05,23,17,17,12.60
2019,05,23,17,18,12.60
2019,05,23,17,19,12.60
2019,05,23,17,20,12.60
2019,05,23,17,21,12.80
2019,05,23,17,22,12.90
2019,05,23,17,23,12.80
2019,05,23,17,24,12.80
2019,05,23,17,25,12.70
2019,05,23,17,26,12.70
2019,05,23,17,27,12.90
2019,05,23,17,28,13.50
2019,05,23,17,29,13.60
2019,05,23,17,30,13.70
2019,05,23,17,31,14.10
2019,05,23,17,32,14.60
2019,05,23,17,33,15.00
2019,05,23,17,34,15.30
2019,05,23,17,35,15.30
2019,05,23,17,36,15.30
2019,05,23,17,37,15.30
2019,05,23,17,38,15.10
2019,05,23,17,39,15.20
2019,05,23,17,40,15.20
2019,05,23,17,41,15.30
2019,05,23,17,42,15.40
2019,05,23,17,43,15.60
2019,05,23,17,44,15.90
2019,05,23,17,45,16.20
2019,05,23,18,06,17.40
2019,05,23,18,07,17.60
2019,05,23,18,08,17.50
2019,05,23,18,09,17.40
2019,05,23,18,10,17.70
2019,05,23,18,11,18.50
2019,05,23,18,12,18.90
2019,05,23,18,13,19.30
2019,05,23,18,14,19.50
2019,05,23,18,15,19.50
2019,05,23,18,16,19.40
2019,05,23,18,17,19.40
2019,05,23,18,18,19.40
2019,05,23,18,19,19.50
2019,05,23,18,20,19.40
2019,05,23,18,21,19.30
2019,05,23,18,22,19.10
2019,05,23,18,23,19.10
2019,05,23,18,24,18.90
2019,05,23,18,25,18.80
2019,05,23,18,26,18.80
2019,05,23,18,27,18.70
2019,05,23,18,28,18.60
2019,05,23,18,29,18.60
2019,05,23,18,30,18.50
2019,05,23,18,31,18.50
2019,05,23,18,32,18.50
2019,05,23,18,33,18.50
2019,05,23,18,34,18.40
2019,05,23,18,35,18.40
2019,05,23,18,36,18.40
2019,05,23,18,37,18.60
2019,05,23,18,38,18.70
2019,05,23,18,39,18.80
2019,05,23,18,40,18.80
2019,05,23,18,41,18.90
2019,05,23,18,42,19.10
2019,05,23,18,43,19.30
2019,05,23,18,44,19.20
2019,05,23,18,45,19.20
2019,05,23,18,46,19.30
2019,05,23,18,47,19.20
2019,05,23,18,48,19.00
2019,05,23,18,49,19.00
2019,05,23,18,50,19.10
2019,05,23,18,51,19.10
2019,05,23,18,52,19.00
2019,05,23,18,53,18.90
2019,05,23,18,54,18.80
2019,05,23,18,55,18.70
2019,05,23,18,56,18.60
2019,05,23,18,57,18.60
2019,05,23,18,58,18.50
2019,05,23,18,59,18.60
2019,05,23,19,00,18.80
2019,05,23,19,01,18.90
2019,05,23,19,02,19.00
2019,05,23,19,03,18.90
2019,05,23,19,04,19.00
2019,05,23,19,05,19.10
2019,05,23,19,06,19.00
2019,05,23,19,07,18.90
2019,05,23,19,08,19.10
2019,05,23,19,09,19.20
2019,05,23,19,10,19.20
2019,05,23,19,11,19.10
2019,05,23,19,12,19.00
2019,05,23,19,13,19.00
2019,05,23,19,14,18.90
2019,05,23,19,15,18.90
2019,05,23,19,16,18.80
2019,05,23,19,17,18.80
2019,05,23,19,18,18.70
2019,05,23,19,19,18.60
2019,05,23,19,20,18.60
2019,05,23,19,21,18.60
2019,05,23,19,22,18.60